Regional Weather Roundup
Issued by NWS

Home | Current Version | Previous Version | Text Only | Print | Product List | Glossary Off
Versions: 1 2 3 4 5 6 7 8 9 10 11 12 13 14 15 16 17 18 19 20 21 22 23 24 25 26 27 28 29 30 31 32 33 34 35 36 37 38 39 40 41 42 43 44 45 46 47 48 49 50

000
ASUS45 KBOU 290207
RWRCO

WEATHER ROUNDUP FOR COLORADO
NATIONAL WEATHER SERVICE DENVER/BOULDER CO
800 PM MDT THU AUG 28 2014

NOTE: "FAIR" INDICATES FEW OR NO CLOUDS BELOW 12000 FEET WITH NO
SIGNIFICANT WEATHER AND/OR OBSTRUCTIONS TO VISIBILITY.

COZ001>005-013-030-031-290300-
...NORTHWEST COLORADO...

CITY           SKY/WX    TMP DP  RH WIND       PRES   REMARKS
CRAIG          PTCLDY    62  50  64 SW10      30.20S
HAYDEN         CLOUDY    63  48  59 E7        30.22S
MEEKER         PTCLDY    62  54  74 NE5       30.23S
MOUNT WERNER   NOT AVBL
STEAMBOAT SPGS PTCLDY    55  51  86 CALM      30.26S
WALDEN         MOCLDY    54  43  66 W7        30.30S
$$

COZ006>008-011-290300-
...WEST CENTRAL VALLEYS...

CITY           SKY/WX    TMP DP  RH WIND       PRES   REMARKS
GRAND JUNCTION CLEAR     71  54  54 CALM      30.13S
MONTROSE       CLEAR     68  50  52 E3        30.22S
EAGLE          PTCLDY    63  48  59 NE3       30.26R
RIFLE          MOCLDY    68  52  56 SW3       30.18R
DELTA          CLEAR     72  53  50 CALM      30.18S
NUCLA          NOT AVBL
$$

COZ017>023-064>068-290300-
...SOUTHWEST COLORADO...

CITY           SKY/WX    TMP DP  RH WIND       PRES   REMARKS
DURANGO        CLEAR     67  38  34 N12       30.19R
CORTEZ         CLEAR     68  45  43 N9        30.21R
PAGOSA SPRINGS CLEAR     64  29  27 N7        30.27R
TELLURIDE      PTCLDY    55  39  54 W6        30.40R
WOLF CREEK PAS CLEAR     41  30  65 NE8G16    30.54R
$$

COZ009-010-012-014-032>034-037-058>063-290300-
...CENTRAL COLORADO...

CITY           SKY/WX    TMP DP  RH WIND       PRES   REMARKS
ASPEN          MOCLDY    57  46  66 CALM      30.31R
BUENA VISTA    MOCLDY    60  35  39 N20       30.30R
COPPER MTN     MOCLDY    41  37  87 W23       30.54S
BERTHOUD PASS  FOG       34  32  93 NW24G31   30.55S VSB 1/4 WCI  21
COTTONWOOD PAS PTCLDY    54  32  43 CALM      30.42R
GUNNISON       CLEAR     59  37  44 NW3       30.32R
KREMMLING      PTCLDY    54  45  71 W7        30.30S
LEADVILLE      MOCLDY    45  39  79 N8        30.43R
MONARCH PASS   CLEAR     41  32  70 N13       30.64S
SALIDA         PTCLDY    60  45  57 SE6       30.35R
SUNLIGHT       PTCLDY    46  43  87 CALM      30.52S
WILKERSON PASS NOT AVBL
$$

COZ069>075-290300-
...SAN LUIS VALLEY/SANGRE DE CRISTO MOUNTAINS...

CITY           SKY/WX    TMP DP  RH WIND       PRES   REMARKS
ALAMOSA        PTCLDY    57  46  66 CALM      30.26S
LA VETA PASS   NOT AVBL
SAGUACHE       NOT AVBL
$$

COZ035-036-038>040-290300-
...NORTHERN COLORADO FRONT RANGE...

CITY           SKY/WX    TMP DP  RH WIND       PRES   REMARKS
DENVER INTL AP MOCLDY    60  48  64 SW7       30.13F
DMNS CITY PARK   N/A     60  51  71 S6        30.14S
AURORA         MOCLDY    58  50  75 S6        30.16F
FRONT RANGE AP NOT AVBL
ERIE MUNI ARPT PTCLDY    60  52  72 S3        30.13S
BOULDER MUN AP PTCLDY    61  46  59 S3        30.12S
CENTENNIAL     PTCLDY    57  49  74 SW9       30.17F
BROOMFIELD     MOCLDY    61 N/A N/A VRB6      30.15F
FORT COLLINS   PTCLDY    59  52  77 S7        30.11S
LONGMONT       PTCLDY    62  50  65 CALM      30.13S
$$

COZ041-046-047-076>085-087-088-290300-
...PIKES PEAK/PALMER DIVIDE AND SOUTHERN FOOTHILLS...

CITY           SKY/WX    TMP DP  RH WIND       PRES   REMARKS
COLO. SPRINGS  MOCLDY    59  44  57 NW9       30.21F
A. F. ACADEMY  MOCLDY    54  48  79 N8        30.22F
ELLICOTT       MOCLDY    58  46  64 NW5       30.18F
FALCON         MOCLDY    55  44  67 NW9G17    30.23F
FORT CARSON    MOCLDY    57  49  75 NW6       30.20S
LIMON          MOCLDY    60  50  69 NW9       30.13S
MONUMENT HILL  CLOUDY    52  46  82 W6        30.23S
TRINIDAD       MOCLDY    62  49  62 NW13      30.18
$$

COZ042>045-048>051-090-091-290300-
...NORTHEAST COLORADO...

CITY           SKY/WX    TMP DP  RH WIND       PRES   REMARKS
GREELEY ARPT   PTCLDY    61  46  59 W8        30.10S
AKRON          MOCLDY    61  54  77 W7        30.08R
BURLINGTON     PTCLDY    66  54  65 NW8       30.05R
WRAY             N/A     64  58  80 NW6       30.01S
STERLING       MOCLDY    68  55  64 NW9       30.03F
HOLYOKE        MOCLDY    64  57  77 W6        30.01R
FORT MORGAN    MOCLDY    63  51  65 CALM      30.08S
$$

COZ086-089-092>099-290300-
...SOUTHEAST COLORADO...

CITY           SKY/WX    TMP DP  RH WIND       PRES   REMARKS
PUEBLO         MOCLDY    60  55  83 SW6       30.14S
LA JUNTA       CLOUDY    63  57  81 NW8       30.10F
LAMAR          CLOUDY    71  51  49 NW7       30.03R
SPRINGFIELD      N/A     69  51  52 N9        30.04S
$$



USA.gov is the U.S. government's official web portal to all federal, state and local government web resources and services.